When you browse on this site, cookies collect data to enhance your experience and personalize the content and advertising you see.
Visit our Privacy Policy to learn more. By continuing to use the site, you agree to this use of cookies and data.
  • In Latvia
  • List of Countries
  • For 7 days
  • Water Temperature
  • Weather Map
  • Weather Widgets
  • user-avatar
    Login

    Hourly Weather Barykovka

    Today, 25 August, Sunday

    Time Temperature Precipitation Wind Pressure Humidity
    00:00 +16°C° 0 mm 3 mps 748 mmHg 74%
    01:00 +16°C° 0 mm 3 mps 749 mmHg 78%
    02:00 +14°C° 0 mm 3 mps 749 mmHg 83%
    03:00 +14°C° 0 mm 3 mps 749 mmHg 87%
    04:00 +14°C° 0 mm 3 mps 749 mmHg 89%
    05:00 +13°C° 0 mm 3 mps 749 mmHg 92%
    06:00 +13°C° 0 mm 3 mps 749 mmHg 95%
    07:00 +14°C° 0 mm 3 mps 749 mmHg 88%
    08:00 +17°C° 0 mm 3 mps 750 mmHg 81%
    09:00 +18°C° 0 mm 4 mps 750 mmHg 74%
    10:00 +19°C° 0 mm 4 mps 750 mmHg 69%
    11:00 +20°C° 0 mm 4 mps 750 mmHg 64%
    12:00 +21°C° 0 mm 4 mps 750 mmHg 59%
    13:00 +21°C° 0 mm 4 mps 750 mmHg 58%
    14:00 +21°C° 0 mm 4 mps 750 mmHg 58%
    15:00 +21°C° 0 mm 4 mps 751 mmHg 57%
    16:00 +21°C° 0 mm 4 mps 750 mmHg 61%
    17:00 +20°C° 0 mm 3 mps 750 mmHg 65%
    18:00 +20°C° 0 mm 3 mps 750 mmHg 69%
    19:00 +18°C° 0 mm 3 mps 751 mmHg 73%
    20:00 +17°C° 0 mm 2 mps 751 mmHg 77%
    21:00 +16°C° 0 mm 2 mps 752 mmHg 81%
    22:00 +15°C° 0 mm 2 mps 752 mmHg 84%
    23:00 +15°C° 0 mm 2 mps 752 mmHg 86%

    Tomorrow, 26 August, Monday

    Time Temperature Precipitation Wind Pressure Humidity
    00:00 +13°C° 0 mm 3 mps 752 mmHg 89%
    01:00 +13°C° 0 mm 2 mps 752 mmHg 89%
    02:00 +13°C° 0 mm 2 mps 753 mmHg 90%
    03:00 +12°C° 0 mm 1 mps 753 mmHg 90%
    04:00 +12°C° 0 mm 1 mps 753 mmHg 90%
    05:00 +12°C° 0 mm 1 mps 753 mmHg 89%
    06:00 +11°C° 0 mm 0 mps 752 mmHg 89%
    07:00 +12°C° 0 mm 0 mps 753 mmHg 83%
    08:00 +15°C° 0 mm 1 mps 753 mmHg 76%
    09:00 +18°C° 0 mm 1 mps 753 mmHg 70%
    10:00 +19°C° 0 mm 1 mps 753 mmHg 65%
    11:00 +20°C° 0 mm 1 mps 753 mmHg 59%
    12:00 +20°C° 0 mm 0 mps 753 mmHg 54%
    13:00 +22°C° 0 mm 1 mps 752 mmHg 52%
    14:00 +22°C° 0 mm 1 mps 752 mmHg 49%
    15:00 +23°C° 0 mm 1 mps 752 mmHg 47%
    16:00 +22°C° 0 mm 1 mps 751 mmHg 50%
    17:00 +22°C° 0 mm 1 mps 751 mmHg 54%
    18:00 +22°C° 0 mm 1 mps 750 mmHg 57%
    19:00 +20°C° 0 mm 1 mps 750 mmHg 61%
    20:00 +19°C° 0 mm 1 mps 750 mmHg 64%
    21:00 +16°C° 0 mm 2 mps 750 mmHg 67%
    22:00 +16°C° 0 mm 2 mps 750 mmHg 69%
    23:00 +16°C° 0 mm 2 mps 749 mmHg 72%

    Day after tomorrow, 27 August, Tuesday

    Time Temperature Precipitation Wind Pressure Humidity
    00:00 +15°C° 0 mm 2 mps 749 mmHg 74%
    01:00 +14°C° 0 mm 3 mps 749 mmHg 76%
    02:00 +14°C° 0 mm 3 mps 748 mmHg 77%
    03:00 +13°C° 0 mm 3 mps 748 mmHg 79%
    04:00 +13°C° 0 mm 3 mps 748 mmHg 80%
    05:00 +13°C° 0 mm 3 mps 747 mmHg 81%
    06:00 +13°C° 0 mm 3 mps 747 mmHg 82%
    07:00 +14°C° 0 mm 4 mps 747 mmHg 80%
    08:00 +17°C° 0 mm 4 mps 746 mmHg 77%
    09:00 +17°C° 0 mm 5 mps 746 mmHg 75%
    10:00 +19°C° 0.2 mm 5 mps 746 mmHg 72%
    11:00 +21°C° 0.2 mm 6 mps 745 mmHg 69%
    12:00 +22°C° 0.2 mm 6 mps 745 mmHg 66%
    13:00 +22°C° 0.4 mm 7 mps 744 mmHg 65%
    14:00 +22°C° 0.4 mm 7 mps 744 mmHg 64%
    15:00 +22°C° 0.4 mm 7 mps 744 mmHg 64%
    16:00 +21°C° 0.1 mm 6 mps 744 mmHg 67%
    17:00 +21°C° 0.1 mm 5 mps 744 mmHg 69%
    18:00 +20°C° 0.1 mm 5 mps 743 mmHg 72%
    19:00 +17°C° 0 mm 5 mps 744 mmHg 74%
    20:00 +17°C° 0 mm 4 mps 744 mmHg 76%
    21:00 +15°C° 0 mm 4 mps 744 mmHg 78%
    22:00 +14°C° 0 mm 4 mps 745 mmHg 79%
    23:00 +13°C° 0 mm 4 mps 745 mmHg 80%

    28 August, Wednesday

    Time Temperature Precipitation Wind Pressure Humidity
    00:00 +12°C° 0 mm 4 mps 745 mmHg 81%
    01:00 +11°C° 0 mm 4 mps 745 mmHg 81%
    02:00 +10°C° 0 mm 5 mps 746 mmHg 82%
    03:00 +9°C° 0 mm 5 mps 746 mmHg 83%
    04:00 +8°C° 0 mm 5 mps 746 mmHg 81%
    05:00 +7°C° 0 mm 5 mps 747 mmHg 78%
    06:00 +6°C° 0 mm 5 mps 747 mmHg 76%
    07:00 +7°C° 0 mm 5 mps 747 mmHg 71%
    08:00 +8°C° 0 mm 6 mps 747 mmHg 67%
    09:00 +9°C° 0 mm 6 mps 748 mmHg 62%
    10:00 +10°C° 0 mm 6 mps 748 mmHg 60%
    11:00 +11°C° 0 mm 6 mps 748 mmHg 58%
    12:00 +13°C° 0 mm 6 mps 748 mmHg 56%
    13:00 +13°C° 0 mm 6 mps 748 mmHg 54%
    14:00 +14°C° 0 mm 7 mps 747 mmHg 52%
    15:00 +14°C° 0 mm 7 mps 747 mmHg 50%
    16:00 +14°C° 0 mm 6 mps 748 mmHg 53%
    17:00 +13°C° 0 mm 6 mps 748 mmHg 56%
    18:00 +12°C° 0 mm 5 mps 748 mmHg 59%
    19:00 +11°C° 0 mm 4 mps 748 mmHg 64%
    20:00 +10°C° 0 mm 4 mps 748 mmHg 68%
    21:00 +8°C° 0 mm 3 mps 749 mmHg 72%
    22:00 +7°C° 0 mm 3 mps 749 mmHg 74%
    23:00 +7°C° 0 mm 3 mps 749 mmHg 75%

    29 August, Thursday

    Time Temperature Precipitation Wind Pressure Humidity
    00:00 +6°C° 0 mm 2 mps 750 mmHg 77%
    01:00 +5°C° 0 mm 3 mps 750 mmHg 79%
    02:00 +5°C° 0 mm 3 mps 750 mmHg 81%
    03:00 +4°C° 0 mm 3 mps 750 mmHg 83%
    04:00 +4°C° 0 mm 3 mps 750 mmHg 85%
    05:00 +4°C° 0 mm 3 mps 750 mmHg 87%
    06:00 +4°C° 0 mm 3 mps 750 mmHg 88%
    07:00 +5°C° 0 mm 4 mps 750 mmHg 82%
    08:00 +7°C° 0 mm 5 mps 750 mmHg 75%
    09:00 +8°C° 0 mm 5 mps 751 mmHg 68%
    10:00 +9°C° 0 mm 5 mps 750 mmHg 65%
    11:00 +10°C° 0 mm 5 mps 750 mmHg 62%
    12:00 +12°C° 0 mm 5 mps 750 mmHg 59%
    13:00 +13°C° 0 mm 5 mps 750 mmHg 58%
    14:00 +14°C° 0 mm 5 mps 750 mmHg 56%
    15:00 +14°C° 0 mm 5 mps 750 mmHg 54%
    16:00 +14°C° 0 mm 5 mps 750 mmHg 57%
    17:00 +13°C° 0 mm 4 mps 750 mmHg 60%
    18:00 +13°C° 0 mm 4 mps 750 mmHg 63%
    19:00 +12°C° 0 mm 3 mps 750 mmHg 67%
    20:00 +10°C° 0 mm 3 mps 750 mmHg 72%
    21:00 +9°C° 0 mm 3 mps 750 mmHg 76%
    22:00 +8°C° 0 mm 3 mps 750 mmHg 78%
    23:00 +8°C° 0 mm 2 mps 750 mmHg 79%

    30 August, Friday

    Time Temperature Precipitation Wind Pressure Humidity
    00:00 +7°C° 0 mm 2 mps 751 mmHg 80%
    01:00 +7°C° 0 mm 2 mps 751 mmHg 81%
    02:00 +6°C° 0 mm 2 mps 750 mmHg 83%
    03:00 +6°C° 0 mm 2 mps 750 mmHg 84%
    04:00 +6°C° 0 mm 2 mps 750 mmHg 85%
    05:00 +5°C° 0 mm 2 mps 750 mmHg 86%
    06:00 +5°C° 0 mm 2 mps 750 mmHg 87%
    07:00 +7°C° 0 mm 3 mps 750 mmHg 80%
    08:00 +9°C° 0 mm 3 mps 750 mmHg 74%
    09:00 +11°C° 0 mm 3 mps 750 mmHg 67%
    10:00 +12°C° 0 mm 3 mps 750 mmHg 61%
    11:00 +13°C° 0 mm 3 mps 750 mmHg 55%
    12:00 +16°C° 0 mm 3 mps 750 mmHg 48%
    13:00 +16°C° 0 mm 3 mps 749 mmHg 48%
    14:00 +17°C° 0 mm 4 mps 749 mmHg 47%
    15:00 +18°C° 0 mm 4 mps 748 mmHg 46%
    16:00 +17°C° 0 mm 4 mps 748 mmHg 52%
    17:00 +17°C° 0 mm 4 mps 748 mmHg 58%
    18:00 +16°C° 0 mm 3 mps 747 mmHg 64%
    19:00 +15°C° 0.1 mm 4 mps 747 mmHg 71%
    20:00 +14°C° 0.1 mm 4 mps 747 mmHg 77%
    21:00 +14°C° 0.1 mm 4 mps 747 mmHg 83%
    22:00 +14°C° 0.2 mm 4 mps 747 mmHg 87%
    23:00 +13°C° 0.2 mm 3 mps 747 mmHg 92%
    Show more